Location: Gouy
(50.0008°N, 3.2556°E)
Time: 12:58:24
(UTC+00:00)

Cosmos 2074 Rocket - Pass Details

Date: 23 May 2024
Orbit: 966 x 986 km, 82.9° (Epoch: 19 June)

Event Time Altitude Azimuth Distance (km) Brightness Sun altitude
Exits shadow 02:48:45 - 187° (S) 3,357 6.3 -8.4°
Reaches altitude 10° 02:50:27 10° 188° (S) 2,714 5.9 -8.2°
Maximum altitude 02:56:41 89° 268° (W) 978 4.1 -7.5°
Drops below altitude 10° 03:02:56 10° 10° (N) 2,722 7.3 -6.8°
Sets 03:05:27 0° 10° (N) 3,671 8.0 -6.5°
